Voltar ao catálogo

SITRO-AIS-14

AtivoComunicaçõesSSO
NORAD 61752·PAYLOAD·🇷🇺 Russia
Este nome de satélite ainda não foi confirmado por fontes oficiais.

Lançado Nov 4, 2024 de Vostochny Cosmodrome

Loading…

Próximas Passagens (próximas 24 horas)

TLE

AtualizadoSource: Space-Track

Época: Sep 14, 2026, 13:42 UTC

1 61752U 24199T   26257.57130397  .00002098  00000-0  18194-3 0  9998
2 61752  97.3206  91.4244 0007822 114.2595 245.9446 14.98045597148504

Acompanhe SITRO-AIS-14 em tempo real com AllMySat

Download on the App Store